• In Moldova, Republic
  • List of Countries
  • For 7 days
  • Water Temperature
  • Satellite Maps
  • Weather Map
  • Weather Widgets
  • user-avatar
    Login

    Hourly Weather Melbourne

    Today, 27 February, Monday

    Time Temperature Precipitation Wind Pressure Humidity
    00:00 +18°C° 0 mm 1 mps 764 mmHg 85%
    01:00 +16°C° 0 mm 1 mps 764 mmHg 86%
    02:00 +18°C° 0 mm 1 mps 764 mmHg 83%
    03:00 +18°C° 0 mm 1 mps 764 mmHg 79%
    04:00 +18°C° 0 mm 2 mps 764 mmHg 74%
    05:00 +18°C° 0 mm 2 mps 765 mmHg 72%
    06:00 +18°C° 0 mm 2 mps 765 mmHg 70%
    07:00 +18°C° 0 mm 2 mps 765 mmHg 68%
    08:00 +21°C° 0 mm 2 mps 765 mmHg 58%
    09:00 +25°C° 0 mm 2 mps 765 mmHg 48%
    10:00 +28°C° 0 mm 3 mps 765 mmHg 36%
    11:00 +30°C° 0 mm 2 mps 765 mmHg 33%
    12:00 +31°C° 0 mm 2 mps 764 mmHg 30%
    13:00 +33°C° 0 mm 1 mps 764 mmHg 27%
    14:00 +33°C° 0 mm 1 mps 764 mmHg 26%
    15:00 +33°C° 0 mm 1 mps 763 mmHg 25%
    16:00 +34°C° 0 mm 1 mps 763 mmHg 24%
    17:00 +31°C° 0 mm 2 mps 763 mmHg 31%
    18:00 +28°C° 0 mm 2 mps 763 mmHg 38%
    19:00 +25°C° 0 mm 2 mps 763 mmHg 45%
    20:00 +24°C° 0 mm 2 mps 764 mmHg 52%
    21:00 +21°C° 0 mm 2 mps 764 mmHg 58%
    22:00 +21°C° 0 mm 1 mps 764 mmHg 65%
    23:00 +20°C° 0 mm 1 mps 764 mmHg 68%

    Tomorrow, 28 February, Tuesday

    Time Temperature Precipitation Wind Pressure Humidity
    00:00 +20°C° 0 mm 1 mps 764 mmHg 71%
    01:00 +19°C° 0 mm 1 mps 764 mmHg 74%
    02:00 +19°C° 0 mm 1 mps 764 mmHg 71%
    03:00 +20°C° 0 mm 1 mps 764 mmHg 69%
    04:00 +20°C° 0 mm 1 mps 764 mmHg 67%
    05:00 +21°C° 0 mm 1 mps 764 mmHg 65%
    06:00 +21°C° 0 mm 1 mps 764 mmHg 64%
    07:00 +20°C° 0 mm 2 mps 765 mmHg 63%
    08:00 +24°C° 0 mm 2 mps 765 mmHg 55%
    09:00 +27°C° 0 mm 2 mps 765 mmHg 47%
    10:00 +29°C° 0 mm 2 mps 765 mmHg 39%
    11:00 +31°C° 0 mm 1 mps 764 mmHg 34%
    12:00 +34°C° 0 mm 1 mps 764 mmHg 29%
    13:00 +34°C° 0 mm 0 mps 763 mmHg 24%
    14:00 +35°C° 0 mm 1 mps 763 mmHg 24%
    15:00 +35°C° 0 mm 1 mps 762 mmHg 24%
    16:00 +35°C° 0 mm 2 mps 762 mmHg 24%
    17:00 +32°C° 0 mm 2 mps 762 mmHg 29%
    18:00 +30°C° 0 mm 2 mps 762 mmHg 35%
    19:00 +28°C° 0 mm 2 mps 763 mmHg 40%
    20:00 +26°C° 0 mm 2 mps 763 mmHg 47%
    21:00 +24°C° 0 mm 2 mps 763 mmHg 54%
    22:00 +22°C° 0 mm 1 mps 764 mmHg 61%
    23:00 +21°C° 0 mm 1 mps 763 mmHg 64%

    Day after tomorrow, 1 March, Wednesday

    Time Temperature Precipitation Wind Pressure Humidity
    00:00 +20°C° 0 mm 1 mps 763 mmHg 67%
    01:00 +17°C° 0 mm 0 mps 763 mmHg 70%
    02:00 +17°C° 0 mm 0 mps 763 mmHg 72%
    03:00 +16°C° 0 mm 0 mps 763 mmHg 74%
    04:00 +16°C° 0 mm 0 mps 763 mmHg 77%
    05:00 +19°C° 0 mm 1 mps 763 mmHg 70%
    06:00 +21°C° 0 mm 1 mps 764 mmHg 63%
    07:00 +22°C° 0 mm 1 mps 764 mmHg 57%
    08:00 +25°C° 0 mm 1 mps 764 mmHg 52%
    09:00 +28°C° 0 mm 1 mps 764 mmHg 46%
    10:00 +30°C° 0 mm 1 mps 764 mmHg 41%
    11:00 +32°C° 0 mm 1 mps 763 mmHg 35%
    12:00 +34°C° 0 mm 1 mps 763 mmHg 30%
    13:00 +36°C° 0 mm 1 mps 762 mmHg 24%
    14:00 +36°C° 0 mm 2 mps 762 mmHg 24%
    15:00 +36°C° 0 mm 2 mps 761 mmHg 24%
    16:00 +35°C° 0 mm 3 mps 761 mmHg 25%
    17:00 +31°C° 0 mm 3 mps 761 mmHg 29%
    18:00 +29°C° 0 mm 2 mps 761 mmHg 33%
    19:00 +27°C° 0 mm 2 mps 762 mmHg 38%
    20:00 +25°C° 0 mm 2 mps 762 mmHg 45%
    21:00 +22°C° 0 mm 1 mps 762 mmHg 52%
    22:00 +20°C° 0 mm 1 mps 763 mmHg 60%
    23:00 +19°C° 0 mm 1 mps 762 mmHg 63%

    2 March, Thursday

    Time Temperature Precipitation Wind Pressure Humidity
    00:00 +19°C° 0 mm 1 mps 762 mmHg 66%
    01:00 +16°C° 0 mm 0 mps 762 mmHg 70%
    02:00 +15°C° 0 mm 0 mps 762 mmHg 71%
    03:00 +15°C° 0 mm 0 mps 762 mmHg 73%
    04:00 +14°C° 0 mm 0 mps 761 mmHg 75%
    05:00 +15°C° 0 mm 0 mps 762 mmHg 72%
    06:00 +19°C° 0 mm 1 mps 762 mmHg 69%
    07:00 +20°C° 0 mm 1 mps 763 mmHg 65%
    08:00 +23°C° 0 mm 1 mps 763 mmHg 53%
    09:00 +27°C° 0 mm 1 mps 763 mmHg 41%
    10:00 +30°C° 0 mm 1 mps 763 mmHg 29%
    11:00 +31°C° 0 mm 2 mps 762 mmHg 27%
    12:00 +32°C° 0 mm 2 mps 762 mmHg 26%
    13:00 +34°C° 0 mm 3 mps 762 mmHg 24%
    14:00 +34°C° 0 mm 3 mps 761 mmHg 26%
    15:00 +33°C° 0 mm 3 mps 761 mmHg 28%
    16:00 +33°C° 0 mm 3 mps 760 mmHg 29%
    17:00 +30°C° 0 mm 3 mps 761 mmHg 40%
    18:00 +27°C° 0 mm 3 mps 761 mmHg 50%
    19:00 +25°C° 0 mm 3 mps 762 mmHg 60%
    20:00 +24°C° 0 mm 3 mps 762 mmHg 71%
    21:00 +21°C° 0 mm 2 mps 763 mmHg 81%
    22:00 +20°C° 0 mm 2 mps 764 mmHg 91%
    23:00 +20°C° 0 mm 2 mps 763 mmHg 93%

    3 March, Friday

    Time Temperature Precipitation Wind Pressure Humidity
    00:00 +20°C° 0 mm 3 mps 763 mmHg 94%
    01:00 +20°C° 0 mm 3 mps 763 mmHg 95%
    02:00 +19°C° 0 mm 3 mps 763 mmHg 95%
    03:00 +19°C° 0 mm 3 mps 763 mmHg 95%
    04:00 +19°C° 0 mm 3 mps 763 mmHg 95%
    05:00 +19°C° 0 mm 3 mps 764 mmHg 94%
    06:00 +20°C° 0 mm 3 mps 764 mmHg 93%
    07:00 +20°C° 0 mm 3 mps 765 mmHg 93%
    08:00 +21°C° 0 mm 3 mps 765 mmHg 86%
    09:00 +24°C° 0 mm 3 mps 765 mmHg 78%
    10:00 +25°C° 0 mm 3 mps 765 mmHg 71%
    11:00 +26°C° 0 mm 3 mps 765 mmHg 65%
    12:00 +27°C° 0 mm 4 mps 764 mmHg 59%
    13:00 +28°C° 0 mm 4 mps 764 mmHg 54%
    14:00 +28°C° 0 mm 4 mps 764 mmHg 54%
    15:00 +28°C° 0 mm 4 mps 763 mmHg 54%
    16:00 +28°C° 0 mm 5 mps 763 mmHg 54%
    17:00 +27°C° 0 mm 4 mps 763 mmHg 59%
    18:00 +25°C° 0 mm 4 mps 764 mmHg 64%
    19:00 +24°C° 0 mm 3 mps 764 mmHg 69%
    20:00 +22°C° 0 mm 3 mps 764 mmHg 74%
    21:00 +21°C° 0 mm 3 mps 764 mmHg 80%
    22:00 +20°C° 0 mm 3 mps 765 mmHg 86%
    23:00 +19°C° 0 mm 3 mps 764 mmHg 87%

    4 March, Saturday

    Time Temperature Precipitation Wind Pressure Humidity
    00:00 +19°C° 0 mm 3 mps 764 mmHg 89%
    01:00 +18°C° 0 mm 3 mps 764 mmHg 91%
    02:00 +18°C° 0 mm 2 mps 764 mmHg 92%
    03:00 +18°C° 0 mm 2 mps 763 mmHg 92%
    04:00 +18°C° 0 mm 2 mps 763 mmHg 93%
    05:00 +19°C° 0 mm 1 mps 763 mmHg 92%
    06:00 +19°C° 0 mm 1 mps 764 mmHg 91%
    07:00 +19°C° 0 mm 1 mps 764 mmHg 90%
    08:00 +22°C° 0 mm 1 mps 763 mmHg 78%
    09:00 +25°C° 0 mm 1 mps 763 mmHg 65%
    10:00 +26°C° 0 mm 0 mps 763 mmHg 52%
    11:00 +29°C° 0 mm 1 mps 762 mmHg 47%
    12:00 +31°C° 0 mm 1 mps 761 mmHg 42%
    13:00 +33°C° 0 mm 1 mps 761 mmHg 37%
    14:00 +32°C° 0 mm 1 mps 760 mmHg 39%
    15:00 +31°C° 0 mm 2 mps 760 mmHg 40%
    16:00 +31°C° 0 mm 2 mps 759 mmHg 41%
    17:00 +29°C° 0 mm 2 mps 759 mmHg 48%
    18:00 +27°C° 0 mm 2 mps 759 mmHg 54%
    19:00 +26°C° 0 mm 2 mps 759 mmHg 61%
    20:00 +24°C° 0 mm 2 mps 759 mmHg 69%
    21:00 +22°C° 0 mm 1 mps 759 mmHg 77%
    22:00 +21°C° 0 mm 1 mps 759 mmHg 85%
    23:00 +20°C° 0 mm 1 mps 759 mmHg 87%
    Show more